Regional Weather Roundup
Issued by NWS Grand Forks, ND

Home | Current Version | Previous Version | Graphics & Text | Print | Product List | Glossary On
Versions: 1 2 3 4 5 6 7 8 9 10 11 12 13 14 15 16 17 18 19 20 21 22 23 24 25 26 27 28 29 30 31 32 33 34 35 36 37 38 39 40 41 42 43 44 45 46 47 48 49 50
784
ASUS43 KFGF 181231
RWRFGF
PRAIRIE TO PINES  WEATHER ROUNDUP
NATIONAL WEATHER SERVICE EASTERN NORTH DAKOTA/GRAND FORKS ND
600 AM CST THU JAN 18 2018

 **SATELLITE DATA USED TO AUGMENT SKY COVER AT AUTOMATED STATIONS**
 *****  WEATHER ACROSS EASTERN NORTH DAKOTA  *****

CITY           SKY/WX    TMP DP  RH WIND       PRES   REMARKS
GRAND FORKS    FAIR      27  20  75 N8        29.75S WCI  19
6HR MIN TEMP:  27; 6HR MAX TEMP:  36;

GRAND FRKS AFB FAIR      28  19  68 W12       29.75S WCI  18
GRAND FRKS NWS   N/A     28 N/A N/A N3          N/A
DEVILS LAKE    FAIR      21  16  81 W12       29.77S WCI   9
6HR MIN TEMP:  19; 6HR MAX TEMP:  30;

FARGO          FAIR      25  20  81 SW8       29.80S WCI  16
WAHPETON ARPT  FAIR      23  19  86 W10       29.82F WCI  12
$$

 ***** WEATHER ACROSS CENTRAL AND WESTERN NORTH DAKOTA  *****

CITY           SKY/WX    TMP DP  RH WIND       PRES   REMARKS
BISMARCK       FAIR      22  17  81 W7        29.83F WCI  13
6HR MIN TEMP:  18; 6HR MAX TEMP:  32;

MINOT          FAIR      28  18  66 SW12      29.77S WCI  18
6HR MIN TEMP:  26; 6HR MAX TEMP:  32;

JAMESTOWN      FAIR      29  20  69 W12       29.79F WCI  19
6HR MIN TEMP:  27; 6HR MAX TEMP:  33;

MINOT AFB      FAIR      23  16  75 W12       29.75F WCI  12
GARRISON         N/A     20  15  81 CALM      29.79F
WILLISTON      FAIR      18  14  84 CALM      29.81F
6HR MIN TEMP:  14; 6HR MAX TEMP:  22;

DICKINSON      FAIR      30  20  66 W12       29.80F WCI  20
6HR MIN TEMP:  18; 6HR MAX TEMP:  31;

HETTINGER      FAIR      26  17  68 NW7       29.86F WCI  18
6HR MIN TEMP:  18; 6HR MAX TEMP:  31;

$$

 *****  OTHER AIRPORT OBSERVATIONS IN OUR AREA  *****

CITY           SKY/WX    TMP DP  RH WIND       PRES   REMARKS
WALHALLA       FAIR      25  25 100 NE3       29.75R
GRAFTON AIRPOR CLOUDY    28  27  93 CALM      29.78R
VALLEY CITY AR FAIR      23  21  93 W16       29.80F WCI  10
CANDO          FAIR      14  16 100 W8        29.78S WCI   3
CAVALIER APRT    N/A     25  18  74 N8        29.75R WCI  16
GWINNER          N/A     21  18  86 SW10      29.83F WCI  10
SHEYENNE NWR     N/A     19  17  92 SW7       29.95  WCI  10
ROLLA          FAIR      19  14  79 SW10      29.73S WCI   8
 ***** THE ABOVE OBSERVATIONS ARE NON NWS ARE NOT QUALITY
       CONTROLLED AND MAY MIS-REPORT RAIN FOR SNOW...
$$

  *****  WEATHER ACROSS NORTHERN MINNESOTA  *****

CITY           SKY/WX    TMP DP  RH WIND       PRES   REMARKS
FLAG ISLAND    CLOUDY    27  23  86 NW18      29.66R WCI  13
WARROAD        CLOUDY    28  25  86 W8        29.69S WCI  20
ROSEAU         FAIR      27  19  74 NW10      29.71R WCI  17
HALLOCK        CLOUDY    27  19  74 N8        29.75S WCI  18
THF RVR FALLS  CLOUDY    30  23  75 NW9       29.75R WCI  22
6HR MIN TEMP:  27; 6HR MAX TEMP:  33; 6HR PCP: TRACE;

BAUDETTE       CLOUDY    30  23  75 W16G25    29.65R WCI  19
6HR MIN TEMP:  28; 6HR MAX TEMP:  32; 6HR PCP: TRACE;

WASKISH        CLOUDY    32  28  86 W15G21    29.69R WCI  22
CROOKSTON      FAIR      21  16  79 W7        29.77S WCI  13
STEPHEN NDAWN    N/A     27  21  80 N5          N/A  WCI  21
GREENBUSH NDAW   N/A     27  19  74 W12         N/A  WCI  16
$$
  *****  WEATHER ACROSS CENTRAL AND WEST MINNESOTA  *****

CITY           SKY/WX    TMP DP  RH WIND       PRES   REMARKS
FOSSTON        CLOUDY    27  19  74 W7        29.75S WCI  19
BEMIDJI        CLOUDY    31  24  73 W16       29.71S WCI  20
6HR MIN TEMP:  31; 6HR MAX TEMP:  33;

PARK RAPIDS    FAIR      26  19  74 W12       29.74F WCI  16
6HR MIN TEMP:  23; 6HR MAX TEMP:  30;

ELBOW LAKE     FAIR      21  17  84 SW8       29.82F WCI  12
6HR MIN TEMP:  15; 6HR MAX TEMP:  27;

WADENA         FAIR      27  19  74 W12       29.78S WCI  16
DETROIT LAKES  FAIR      30  23  74 W10       29.78F WCI  21
MOORHEAD       FAIR      27  19  74 W8        29.81F WCI  18
FERGUS FALLS   FAIR      21  18  86 W3        29.82F
MORRIS MN      FAIR      27  19  74 CALM      29.83S VSB 1
STAPLES        FAIR      28  19  69 W14       29.77F WCI  17
$$
  *****  WEATHER ELSEWHERE ACROSS MINNESOTA  *****

CITY           SKY/WX    TMP DP  RH WIND       PRES   REMARKS
DULUTH         CLOUDY    27  20  75 W12       29.71R WCI  17
6HR MIN TEMP:  23; 6HR MAX TEMP:  27;

INTRNTL FALLS  CLOUDY    31  28  89 W9        29.63S WCI  23
6HR MIN TEMP:  21; 6HR MAX TEMP:  32; 6HR PCP:  0.07;

ELY            LGT SNOW  25  25 100 SW7       29.64F WCI  17
CLOQUET        CLOUDY    27  19  74 SW3       29.72S
WHEATON        FAIR      28  19  69 W3        29.86F
BRAINERD       FAIR      32  20  61 W14       29.76F WCI  22
6HR MIN TEMP:  22; 6HR MAX TEMP:  33;

HIBBING        CLOUDY    23  20  88 CALM      29.68F
6HR MIN TEMP:  19; 6HR MAX TEMP:  23; 6HR PCP: TRACE;

ALEXANDRIA     FAIR      30  21  69 W12       29.82F WCI  20
6HR MIN TEMP:  24; 6HR MAX TEMP:  30;

SAINT CLOUD    FAIR      17  15  92 SW7       29.85S WCI   8
6HR MIN TEMP:  17; 6HR MAX TEMP:  26;

MINNEAPOLIS    MOCLDY    26  19  74 W5        29.89F WCI  20
6HR MIN TEMP:  21; 6HR MAX TEMP:  26;

$$

  *****  WEATHER ACROSS SOUTH DAKOTA  *****

CITY           SKY/WX    TMP DP  RH WIND       PRES   REMARKS
SIOUX FALLS    FAIR      13  12  96 CALM      29.98F
6HR MIN TEMP:  13; 6HR MAX TEMP:  21;

BROOKINGS      FAIR      16  14  92 S6        29.93F WCI   7
WATERTOWN      FAIR      17  15  92 S6        29.88F WCI   9
6HR MIN TEMP:  16; 6HR MAX TEMP:  23;

HURON          FAIR      20  17  88 S9        29.93F WCI   9
6HR MIN TEMP:  15; 6HR MAX TEMP:  20;

SISSETON         N/A     36  22  56 W25G33    29.80F
ABERDEEN       FAIR      17  14  88 S7        29.88F WCI   8
6HR MIN TEMP:  17; 6HR MAX TEMP:  22;

MITCHELL       FAIR      17  14  88 SE7       29.95F WCI   8
PIERRE         FAIR      25  20  81 SW9       29.89F WCI  15
6HR MIN TEMP:  20; 6HR MAX TEMP:  31;

MOBRIDGE       FAIR      21  17  84 SE6       29.84F WCI  13
RAPID CITY     FAIR      29  17  61 NW6       29.90F WCI  23
6HR MIN TEMP:  27; 6HR MAX TEMP:  41;

$$

  *****  SOME WEATHER IN NEARBY STATES *****

CITY           SKY/WX    TMP DP  RH WIND       PRES   REMARKS
GLASGOW MT     FAIR      21  17  84 SE9       29.77F WCI  11
6HR MIN TEMP:  13; 6HR MAX TEMP:  22;

GREAT FALLS MT FAIR      44  26  49 S26G36    29.75F
6HR MIN TEMP:  39; 6HR MAX TEMP:  44;

CHEYENNE WY    FAIR      37  12  35 SE3       30.07F
6HR MIN TEMP:  27; 6HR MAX TEMP:  40;

SCOTTSBLUFF NE FAIR      18  14  84 CALM      30.04S
6HR MIN TEMP:  15; 6HR MAX TEMP:  23;

OMAHA NE       FAIR      15   8  73 SE10      30.15F WCI   2
6HR MIN TEMP:  12; 6HR MAX TEMP:  16;

DES MOINES IA  FAIR      20   9  62 SW10      30.13F WCI   9
6HR MIN TEMP:  20; 6HR MAX TEMP:  22;

DAVENPORT IA   FAIR      18  10  71 SW12      30.19F WCI   5
6HR MIN TEMP:  18; 6HR MAX TEMP:  19;

CHICAGO IL     FAIR      17   9  70 SW14G21   30.14F WCI   3
6HR MIN TEMP:  17; 6HR MAX TEMP:  18;

EAU CLAIRE WI  FAIR      22  16  78 S14       29.86F WCI   9
6HR MIN TEMP:  20; 6HR MAX TEMP:  23; 6HR PCP: TRACE;

LA CROSSE WI   FAIR      19  12  74 S8        30.01F WCI   9
6HR MIN TEMP:  17; 6HR MAX TEMP:  22;

$$

  *****  SOME NATIONAL WEATHER *****

CITY           SKY/WX    TMP DP  RH WIND       PRES   REMARKS
LA GUARDIA NY  FAIR      22   9  57 NW15      30.08R WCI   9
6HR MIN TEMP:  20; 6HR MAX TEMP:  23;

RALEIGH NC     FAIR      13   8  81 CALM      30.27R
6HR MIN TEMP:  11; 6HR MAX TEMP:  23; 6HR PCP: TRACE;

ATLANTA GA     FAIR      15   9  76 NW15      30.40R WCI   0
6HR MIN TEMP:  15; 6HR MAX TEMP:  16;

NEW ORLEANS LA FAIR      27  18  69 NE8       30.56S WCI  19
6HR MIN TEMP:  27; 6HR MAX TEMP:  30;

OKLAHOMA CITY  FAIR      15   6  67 S9        30.40F WCI   3
6HR MIN TEMP:  15; 6HR MAX TEMP:  21;

ALBUQUERQUE NM FAIR      21  12  68 W3        30.30F
6HR MIN TEMP:  20; 6HR MAX TEMP:  30;

SALT LAKE CITY FAIR      37  27  67 CALM      30.25R
6HR MIN TEMP:  36; 6HR M



USA.gov is the U.S. government's official web portal to all federal, state and local government web resources and services.